Flag for Estonia Weather past 2 weeks in Tallinn, Estonia

Now
54 °F

Passing clouds.


Feels Like: 52 °F
Forecast: 38 / 61 °F
Wind: 6 mph from West

Location: Tallinn


UV Index: 0 (Low)

Visibility: N/A


Pressure: 30.30 "Hg

Humidity: 44%

Dew point: 32 °F

Location of TallinnLocation

Historic Weather in Tallinn

°F

Tallinn temperature yesterday

Maximum temperature yesterday: 59 °F (at 3:50 PM)
Minimum temperature yesterday: 36 °F (at 11:50 PM)
Average temperature yesterday: 48 °F

Past Weeks' High & Low Weather Summary

 TemperatureHumidityPressure
High59 °F (Apr 18, 3:50 PM)100% (Apr 5, 4:20 AM)30.30 "Hg (Apr 5, 4:20 AM)
Low23 °F (Apr 10, 6:20 AM)25% (Apr 16, 3:20 PM)29.36 "Hg (Apr 14, 5:50 AM)
Average40 °F69%29.92 "Hg
* Reported Apr 4 9:20 AM — Apr 19 9:50 AM, Tallinn, Weather by CustomWeather, © 2014

Note: Actual official high and low records may vary slightly from our data, if they occured in-between our weather recording intervals... More about our weather records

Advertising

Historic Weather Conditions — Data for Previous 24 hours

 ConditionsComfort  
Time TempWeatherWind HumidityBarometerVisibility
9:50 AM
Apr 19
54 °FPassing clouds.5 mph44%30.30 "HgN/A
9:20 AM54 °FSunny.5 mph44%30.30 "Hg10 mi
8:50 AM48 °FPassing clouds.5 mph54%30.30 "HgN/A
8:20 AM45 °FSunny.3 mph61%30.27 "Hg10 mi
7:50 AM41 °FSunny.No wind70%30.27 "Hg10 mi
7:20 AM36 °FSunny.2 mph81%30.27 "Hg10 mi
6:50 AM34 °FClear.2 mph81%30.27 "Hg10 mi
6:20 AM32 °FClear.No wind80%30.24 "Hg10 mi
5:50 AM32 °FClear.2 mph87%30.24 "Hg10 mi
5:20 AM36 °FClear.No wind75%30.24 "Hg10 mi
4:50 AM34 °FClear.1 mph75%30.24 "Hg10 mi
4:20 AM36 °FClear.No wind75%30.24 "Hg10 mi
3:50 AM34 °FClear.No wind81%30.24 "Hg10 mi
3:20 AM32 °FClear.No wind80%30.24 "Hg10 mi
2:50 AM36 °FClear.1 mph81%30.24 "Hg10 mi
2:20 AM34 °FClear.No wind81%30.24 "Hg10 mi
1:50 AM34 °FClear.No wind81%30.21 "Hg10 mi
1:20 AM34 °FClear.No wind81%30.21 "Hg10 mi
12:50 AM36 °FClear.No wind75%30.21 "Hg10 mi
12:20 AM36 °FClear.2 mph75%30.21 "Hg10 mi
11:50 PM
Apr 18
36 °FClear.2 mph81%30.18 "Hg10 mi
11:20 PM37 °FClear.No wind75%30.18 "Hg10 mi
10:50 PM39 °FClear.No wind75%30.15 "Hg10 mi
10:20 PM39 °FClear.2 mph75%30.15 "Hg10 mi
9:50 PM41 °FClear.2 mph70%30.15 "Hg10 mi
9:20 PM45 °FPassing clouds.3 mph57%30.12 "HgN/A
8:50 PM46 °FSunny.2 mph53%30.12 "Hg10 mi
8:20 PM48 °FSunny.6 mph50%30.09 "Hg10 mi
7:50 PM50 °FSunny.7 mph47%30.09 "Hg10 mi
7:20 PM52 °FSunny.8 mph41%30.07 "Hg10 mi
6:50 PM54 °FSunny.9 mph35%30.07 "Hg10 mi
6:20 PM54 °FPassing clouds.12 mph35%30.07 "HgN/A
5:50 PM55 °FSunny.6 mph33%30.04 "Hg10 mi
5:20 PM57 °FPassing clouds.10 mph29%30.04 "HgN/A
4:20 PM59 °FPassing clouds.12 mph27%30.01 "HgN/A
3:50 PM59 °FPassing clouds.10 mph27%30.01 "HgN/A
3:20 PM57 °FPassing clouds.10 mph25%30.01 "HgN/A
2:50 PM57 °FPassing clouds.14 mph29%29.98 "HgN/A
2:20 PM55 °FPassing clouds.15 mph31%29.98 "HgN/A
1:50 PM57 °FPassing clouds.15 mph31%29.98 "HgN/A
1:20 PM55 °FPassing clouds.12 mph33%29.95 "HgN/A
12:50 PM55 °FPassing clouds.16 mph33%29.95 "HgN/A
12:20 PM55 °FSunny.17 mph33%29.95 "Hg10 mi
11:50 AM55 °FPassing clouds.14 mph36%29.92 "HgN/A
11:20 AM54 °FPassing clouds.13 mph41%29.92 "HgN/A
10:50 AM54 °FPassing clouds.13 mph41%29.92 "HgN/A
10:20 AM52 °FPassing clouds.10 mph44%29.89 "HgN/A
Weather by CustomWeather, © 2014

See weather overview